Marion, KY

11:00 AM CST on February 23, 2017 (GMT -0600)
Marion-Critt Cnty AP, Marion,

Weather History for K5M9 - February, 2014

Change the Weather History Date:

Wednesday, February 26, 2014

  Actual Average (KEHR) Record (KEHR)
Temperature  
Mean Temperature 20 °F -  
Max Temperature 26 °F 48 °F 71 °F (1981)
Min Temperature 14 °F 30 °F 7 °F (1967)
Degree Days  
Heating Degree Days 45    
Moisture  
Dew Point 6 °F    
Average Humidity 54    
Maximum Humidity 80    
Minimum Humidity 35    
Precipitation  
Precipitation 0.00 in - - ()
Sea Level Pressure  
Sea Level Pressure 30.14 in    
Wind  
Wind Speed 9 mph (NW)    
Max Wind Speed 18 mph    
Max Gust Speed 24 mph    
Visibility 10 miles    
Events Snow    
Averages and records for this station are not official NWS values.
T = Trace of Precipitation, MM = Missing Value Source: NWS Daily Summary

Daily Weather History Graph

Daily Weather History Graph

Search for Another Location

Airport or City:

Trip Planner

Search our weather history database for the weather conditions in past years. The results will help you decide how hot, cold, wet, or windy it might be!

Date:

Astronomy

Feb. 26, 2014 Rise Set
Actual Time 6:27 AM CST 5:43 PM CST
Civil Twilight 6:01 AM CST 6:09 PM CST
Nautical Twilight 5:31 AM CST 6:40 PM CST
Astronomical Twilight 5:01 AM CST 7:10 PM CST
Moon 4:10 AM CST (2/26) 3:00 PM CST (2/26)
Length of Visible Light 12h 08m
Length of Day
11h 15m
Waning Crescent, 10% of the Moon is Illuminated
Feb 26
Waning Crescent
Mar 1
New
Mar 8
First Quarter
Mar 16
Full
Mar 23
Last Quarter

Hourly Weather History & Observations

Time (CST) Temp. Windchill Dew Point Humidity Pressure Visibility Wind Dir Wind Speed Gust Speed Precip Events Conditions
12:15 AM 24.4 °F 15.6 °F 16.3 °F 71% 30.19 in 10.0 mi North 8.1 mph 20.7 mph N/A   Mostly Cloudy
12:35 AM 24.4 °F 13.0 °F 16.7 °F 72% 30.20 in 10.0 mi NNW 12.7 mph 21.9 mph N/A   Scattered Clouds
12:55 AM 24.4 °F 13.5 °F 17.4 °F 75% 30.20 in 10.0 mi North 11.5 mph 16.1 mph N/A   Mostly Cloudy
1:15 AM 24.4 °F 14.9 °F 17.6 °F 75% 30.20 in 10.0 mi NNW 9.2 mph - N/A   Overcast
1:35 AM 23.9 °F 12.9 °F 18.3 °F 79% 30.21 in 10.0 mi NNW 11.5 mph 17.3 mph N/A Snow Light Snow
1:55 AM 23.5 °F 11.3 °F 16.7 °F 75% 30.21 in 7.0 mi NNW 13.8 mph 24.2 mph N/A Snow Light Snow
2:15 AM 22.6 °F 9.6 °F 15.8 °F 75% 30.21 in 7.0 mi NNW 15.0 mph 21.9 mph N/A Snow Light Snow
2:35 AM 21.7 °F 9.0 °F 16.3 °F 80% 30.22 in 10.0 mi NNW 13.8 mph 17.3 mph N/A Snow Light Snow
2:55 AM 21.6 °F 6.9 °F 13.1 °F 70% 30.21 in 10.0 mi NNW 18.4 mph 24.2 mph N/A   Overcast
3:15 AM 21.0 °F 11.4 °F 7.3 °F 56% 30.22 in 10.0 mi NNW 8.1 mph 19.6 mph N/A   Overcast
3:35 AM 20.3 °F 10.6 °F 5.5 °F 53% 30.22 in 10.0 mi NNW 8.1 mph - N/A   Overcast
3:55 AM 19.4 °F 6.0 °F 5.2 °F 54% 30.22 in 10.0 mi NNW 13.8 mph 17.3 mph N/A   Overcast
4:15 AM 18.5 °F 6.1 °F 6.6 °F 60% 30.22 in 10.0 mi North 11.5 mph 21.9 mph N/A   Overcast
4:35 AM 18.0 °F 6.1 °F 6.8 °F 62% 30.24 in 10.0 mi NNW 10.4 mph - N/A   Mostly Cloudy
4:55 AM 18.0 °F 8.7 °F 6.3 °F 60% 30.24 in 10.0 mi NNW 6.9 mph - N/A   Clear
5:15 AM 17.6 °F 5.0 °F 3.9 °F 55% 30.24 in 10.0 mi NNW 11.5 mph 16.1 mph N/A   Mostly Cloudy
5:35 AM 16.2 °F 3.2 °F 3.6 °F 58% 30.24 in 10.0 mi NNW 11.5 mph 18.4 mph N/A   Mostly Cloudy
5:55 AM 15.3 °F 0.2 °F 4.5 °F 62% 30.25 in 10.0 mi NNW 15.0 mph 18.4 mph N/A   Scattered Clouds
6:15 AM 14.7 °F 1.4 °F 4.6 °F 64% 30.24 in 10.0 mi North 11.5 mph 17.3 mph N/A   Scattered Clouds
6:35 AM 14.0 °F 2.0 °F 4.1 °F 65% 30.26 in 10.0 mi North 9.2 mph - N/A   Mostly Cloudy
6:55 AM 14.0 °F -0.8 °F 3.6 °F 63% 30.26 in 10.0 mi NNW 13.8 mph 18.4 mph N/A   Scattered Clouds
7:15 AM 14.0 °F 0.5 °F 2.7 °F 61% 30.26 in 10.0 mi NNW 11.5 mph 17.3 mph N/A   Clear
7:35 AM 14.9 °F 0.3 °F 3.4 °F 60% 30.27 in 10.0 mi North 13.8 mph 18.4 mph N/A   Clear
7:55 AM 14.5 °F 1.1 °F 3.7 °F 62% 30.27 in 10.0 mi North 11.5 mph 17.3 mph N/A   Clear
8:15 AM 14.7 °F 1.4 °F 3.9 °F 62% 30.27 in 10.0 mi North 11.5 mph 17.3 mph N/A   Clear
8:35 AM 16.5 °F 4.3 °F 4.6 °F 60% 30.25 in 10.0 mi NNW 10.4 mph 17.3 mph N/A   Clear
8:55 AM 17.2 °F 6.0 °F 5.0 °F 59% 30.26 in 10.0 mi North 9.2 mph - N/A   Scattered Clouds
9:15 AM 16.5 °F 3.0 °F 3.7 °F 57% 30.25 in 10.0 mi NNW 12.7 mph 17.3 mph N/A   Mostly Cloudy
9:35 AM 18.0 °F 8.7 °F 4.1 °F 55% 30.24 in 10.0 mi North 6.9 mph 16.1 mph N/A   Scattered Clouds
9:55 AM 18.9 °F 6.5 °F 3.6 °F 51% 30.25 in 10.0 mi NNE 11.5 mph 17.3 mph N/A   Scattered Clouds
10:15 AM 18.9 °F 7.2 °F 4.3 °F 53% 30.25 in 10.0 mi North 10.4 mph 16.1 mph N/A   Scattered Clouds
10:35 AM 20.1 °F 10.3 °F 3.7 °F 49% 30.24 in 10.0 mi NNW 8.1 mph - N/A   Clear
10:55 AM 19.8 °F 9.9 °F 3.9 °F 50% 30.24 in 10.0 mi NNE 8.1 mph - N/A   Clear
11:15 AM 20.8 °F 8.4 °F 3.7 °F 48% 30.23 in 10.0 mi North 12.7 mph 17.3 mph N/A   Clear
11:35 AM 21.0 °F 12.4 °F 2.7 °F 45% 30.22 in 10.0 mi North 6.9 mph 18.4 mph N/A   Clear
11:55 AM 21.7 °F 15.5 °F 3.7 °F 46% 30.21 in 10.0 mi NNE 4.6 mph - N/A   Clear
12:15 PM 23.4 °F 15.2 °F 4.1 °F 44% 30.19 in 10.0 mi NW 6.9 mph - N/A   Clear
12:35 PM 23.5 °F 16.4 °F 4.1 °F 43% 30.18 in 10.0 mi North 5.8 mph - N/A   Clear
12:55 PM 23.2 °F 17.2 °F 3.6 °F 43% 30.16 in 10.0 mi North 4.6 mph - N/A   Clear
1:15 PM 25.2 °F 16.5 °F 5.0 °F 42% 30.14 in 10.0 mi North 8.1 mph - N/A   Clear
1:35 PM 25.2 °F 17.3 °F 4.6 °F 42% 30.13 in 10.0 mi North 6.9 mph - N/A   Clear
1:55 PM 25.5 °F 17.8 °F 3.9 °F 40% 30.11 in 10.0 mi NNW 6.9 mph 16.1 mph N/A   Clear
2:15 PM 24.6 °F 15.8 °F 2.5 °F 39% 30.10 in 10.0 mi NNW 8.1 mph - N/A   Clear
2:35 PM 25.9 °F 18.2 °F 2.8 °F 37% 30.10 in 10.0 mi NNW 6.9 mph - N/A   Clear
2:55 PM 26.1 °F 18.4 °F 3.4 °F 38% 30.09 in 10.0 mi NNW 6.9 mph - N/A   Clear
3:15 PM 26.4 °F 18.9 °F 3.0 °F 37% 30.08 in 10.0 mi NW 6.9 mph - N/A   Clear
3:35 PM 26.6 °F 18.2 °F 2.8 °F 36% 30.08 in 10.0 mi WNW 8.1 mph - N/A   Clear
3:55 PM 26.6 °F 18.2 °F 1.9 °F 35% 30.07 in 10.0 mi WNW 8.1 mph - N/A   Clear
4:15 PM 26.6 °F 20.0 °F 2.3 °F 35% 30.06 in 10.0 mi West 5.8 mph - N/A   Clear
4:35 PM 26.1 °F 20.5 °F 2.5 °F 36% 30.05 in 10.0 mi West 4.6 mph - N/A   Clear
4:55 PM 26.1 °F 20.5 °F 3.0 °F 37% 30.04 in 10.0 mi WNW 4.6 mph - N/A   Clear
5:15 PM 25.5 °F 19.9 °F 2.5 °F 37% 30.03 in 10.0 mi WNW 4.6 mph - N/A   Clear
5:35 PM 25.2 °F 19.5 °F 1.6 °F 36% 30.04 in 10.0 mi West 4.6 mph - N/A   Clear
5:55 PM 24.4 °F 18.6 °F 1.4 °F 37% 30.03 in 10.0 mi West 4.6 mph - N/A   Clear
6:15 PM 23.7 °F 16.6 °F 2.1 °F 39% 30.03 in 10.0 mi West 5.8 mph - N/A   Clear
6:35 PM 23.0 °F 17.0 °F 1.9 °F 40% 30.04 in 10.0 mi WNW 4.6 mph - N/A   Clear
6:55 PM 22.8 °F 18.2 °F 1.2 °F 39% 30.03 in 10.0 mi West 3.5 mph - N/A   Clear
7:15 PM 22.5 °F 17.8 °F 0.3 °F 38% 30.03 in 10.0 mi West 3.5 mph - N/A   Clear
7:35 PM 21.9 °F 17.2 °F 0.5 °F 39% 30.02 in 10.0 mi West 3.5 mph - N/A   Clear
7:55 PM 20.5 °F - -0.2 °F 41% 30.01 in 10.0 mi Calm Calm - N/A   Clear
8:15 PM 18.3 °F 13.1 °F 6.1 °F 59% 30.01 in 10.0 mi SW 3.5 mph - N/A   Clear
8:35 PM 18.0 °F 9.8 °F 6.8 °F 62% 30.01 in 10.0 mi SW 5.8 mph - N/A   Clear
8:55 PM 17.8 °F 10.9 °F 6.4 °F 61% 30.00 in 10.0 mi SSW 4.6 mph - N/A   Clear
9:15 PM 16.9 °F 9.8 °F 7.2 °F 66% 30.01 in 10.0 mi SW 4.6 mph - N/A   Clear
9:35 PM 17.6 °F 10.7 °F 5.2 °F 58% 30.00 in 10.0 mi SSW 4.6 mph - N/A   Clear
9:55 PM 16.0 °F 8.8 °F 6.8 °F 67% 30.00 in 10.0 mi SSW 4.6 mph - N/A   Clear
10:15 PM 16.7 °F 9.6 °F 6.8 °F 65% 29.99 in 10.0 mi SSW 4.6 mph - N/A   Clear
10:35 PM 17.1 °F 7.6 °F 7.2 °F 65% 29.99 in 10.0 mi SW 6.9 mph - N/A   Clear
10:55 PM 19.2 °F 8.4 °F 7.5 °F 60% 29.99 in 10.0 mi SW 9.2 mph - N/A   Clear
11:15 PM 20.1 °F 8.8 °F 6.6 °F 56% 29.99 in 10.0 mi WSW 10.4 mph - N/A   Clear
11:35 PM 19.8 °F 9.1 °F 6.8 °F 57% 29.99 in 10.0 mi SW 9.2 mph - N/A   Clear
11:55 PM 19.8 °F 8.3 °F 7.2 °F 58% 29.99 in 10.0 mi SW 10.4 mph - N/A   Clear